When you browse on this site, cookies collect data to enhance your experience and personalize the content and advertising you see.
Visit our Privacy Policy to learn more. By continuing to use the site, you agree to this use of cookies and data.
  • In Hungary
  • List of Countries
  • For 7 days
  • Water Temperature
  • Weather Map
  • News
  • Weather Widgets
  • user-avatar
    Login

    Hourly Weather Gorodcovka

    Today, 26 January, Sunday

    Time Temperature Precipitation Wind Pressure Humidity
    00:00 -1°C° 0.1 mm 1 mps 740 mmHg 97%
    01:00 -2°C° 0 mm 1 mps 740 mmHg 97%
    02:00 -3°C° 0 mm 1 mps 739 mmHg 97%
    03:00 -3°C° 0 mm 1 mps 739 mmHg 96%
    04:00 -4°C° 0 mm 1 mps 739 mmHg 96%
    05:00 -4°C° 0 mm 1 mps 739 mmHg 95%
    06:00 -7°C° 0 mm 2 mps 739 mmHg 94%
    07:00 -7°C° 0 mm 2 mps 740 mmHg 95%
    08:00 -6°C° 0 mm 2 mps 741 mmHg 95%
    09:00 -5°C° 0 mm 2 mps 741 mmHg 96%
    10:00 -5°C° 0 mm 2 mps 742 mmHg 95%
    11:00 -5°C° 0 mm 3 mps 743 mmHg 94%
    12:00 -5°C° 0 mm 4 mps 744 mmHg 93%
    13:00 -6°C° 0.1 mm 5 mps 745 mmHg 93%
    14:00 -6°C° 0.1 mm 6 mps 746 mmHg 93%
    15:00 -6°C° 0.1 mm 7 mps 747 mmHg 93%
    16:00 -8°C° 0.1 mm 6 mps 748 mmHg 91%
    17:00 -10°C° 0.1 mm 6 mps 749 mmHg 89%
    18:00 -12°C° 0.1 mm 5 mps 750 mmHg 87%
    19:00 -12°C° 0 mm 5 mps 751 mmHg 89%
    20:00 -11°C° 0 mm 4 mps 751 mmHg 91%
    21:00 -10°C° 0 mm 3 mps 752 mmHg 94%
    22:00 -10°C° 0 mm 3 mps 752 mmHg 94%
    23:00 -10°C° 0 mm 3 mps 752 mmHg 94%

    Tomorrow, 27 January, Monday

    Time Temperature Precipitation Wind Pressure Humidity
    00:00 -10°C° 0 mm 3 mps 753 mmHg 94%
    01:00 -10°C° 0 mm 3 mps 753 mmHg 94%
    02:00 -10°C° 0 mm 3 mps 753 mmHg 95%
    03:00 -10°C° 0 mm 2 mps 753 mmHg 95%
    04:00 -10°C° 0 mm 3 mps 752 mmHg 95%
    05:00 -9°C° 0 mm 3 mps 751 mmHg 94%
    06:00 -10°C° 0 mm 4 mps 750 mmHg 94%
    07:00 -9°C° 0.4 mm 4 mps 749 mmHg 94%
    08:00 -8°C° 0.4 mm 5 mps 748 mmHg 94%
    09:00 -8°C° 0.4 mm 6 mps 747 mmHg 94%
    10:00 -6°C° 0.7 mm 7 mps 747 mmHg 94%
    11:00 -5°C° 0.7 mm 8 mps 746 mmHg 93%
    12:00 -3°C° 0.7 mm 9 mps 746 mmHg 93%
    13:00 -5°C° 0 mm 9 mps 747 mmHg 90%
    14:00 -6°C° 0 mm 9 mps 747 mmHg 88%
    15:00 -8°C° 0 mm 10 mps 748 mmHg 86%
    16:00 -9°C° 0 mm 9 mps 750 mmHg 86%
    17:00 -11°C° 0 mm 8 mps 752 mmHg 86%
    18:00 -12°C° 0 mm 8 mps 753 mmHg 86%
    19:00 -13°C° 0 mm 7 mps 755 mmHg 88%
    20:00 -13°C° 0 mm 5 mps 756 mmHg 90%
    21:00 -14°C° 0 mm 4 mps 758 mmHg 91%
    22:00 -15°C° 0 mm 4 mps 758 mmHg 92%
    23:00 -16°C° 0 mm 4 mps 759 mmHg 93%

    Day after tomorrow, 28 January, Tuesday

    Time Temperature Precipitation Wind Pressure Humidity
    00:00 -16°C° 0 mm 3 mps 760 mmHg 94%
    01:00 -17°C° 0 mm 3 mps 761 mmHg 94%
    02:00 -19°C° 0 mm 3 mps 762 mmHg 95%
    03:00 -19°C° 0 mm 2 mps 763 mmHg 96%
    04:00 -20°C° 0 mm 2 mps 763 mmHg 96%
    05:00 -20°C° 0 mm 2 mps 764 mmHg 97%
    06:00 -19°C° 0 mm 1 mps 764 mmHg 98%
    07:00 -19°C° 0 mm 1 mps 765 mmHg 97%
    08:00 -18°C° 0 mm 1 mps 765 mmHg 96%
    09:00 -18°C° 0 mm 0 mps 766 mmHg 95%
    10:00 -17°C° 0 mm 0 mps 766 mmHg 93%
    11:00 -15°C° 0 mm 0 mps 766 mmHg 91%
    12:00 -14°C° 0 mm 0 mps 767 mmHg 89%
    13:00 -14°C° 0 mm 1 mps 767 mmHg 91%
    14:00 -14°C° 0 mm 1 mps 767 mmHg 92%
    15:00 -16°C° 0 mm 2 mps 767 mmHg 94%
    16:00 -16°C° 0 mm 2 mps 767 mmHg 93%
    17:00 -17°C° 0 mm 2 mps 767 mmHg 93%
    18:00 -17°C° 0 mm 2 mps 768 mmHg 93%
    19:00 -17°C° 0 mm 2 mps 768 mmHg 93%
    20:00 -17°C° 0 mm 2 mps 768 mmHg 92%
    21:00 -18°C° 0 mm 3 mps 768 mmHg 91%
    22:00 -18°C° 0 mm 3 mps 768 mmHg 91%
    23:00 -18°C° 0 mm 3 mps 768 mmHg 91%

    29 January, Wednesday

    Time Temperature Precipitation Wind Pressure Humidity
    00:00 -17°C° 0 mm 3 mps 767 mmHg 90%
    01:00 -17°C° 0 mm 3 mps 767 mmHg 90%
    02:00 -17°C° 0 mm 3 mps 767 mmHg 90%
    03:00 -18°C° 0 mm 4 mps 767 mmHg 90%
    04:00 -18°C° 0 mm 4 mps 767 mmHg 89%
    05:00 -17°C° 0 mm 4 mps 767 mmHg 89%
    06:00 -17°C° 0 mm 4 mps 767 mmHg 88%
    07:00 -17°C° 0 mm 4 mps 767 mmHg 87%
    08:00 -16°C° 0 mm 4 mps 767 mmHg 86%
    09:00 -16°C° 0 mm 4 mps 767 mmHg 85%
    10:00 -15°C° 0 mm 4 mps 767 mmHg 85%
    11:00 -15°C° 0 mm 5 mps 767 mmHg 85%
    12:00 -14°C° 0 mm 5 mps 767 mmHg 84%
    13:00 -14°C° 0 mm 4 mps 766 mmHg 85%
    14:00 -14°C° 0 mm 4 mps 766 mmHg 85%
    15:00 -14°C° 0 mm 4 mps 766 mmHg 85%
    16:00 -14°C° 0 mm 4 mps 766 mmHg 85%
    17:00 -15°C° 0 mm 4 mps 766 mmHg 86%
    18:00 -15°C° 0 mm 4 mps 766 mmHg 86%
    19:00 -15°C° 0 mm 4 mps 766 mmHg 86%
    20:00 -15°C° 0 mm 4 mps 765 mmHg 86%
    21:00 -15°C° 0 mm 4 mps 765 mmHg 87%
    22:00 -15°C° 0.1 mm 4 mps 765 mmHg 89%
    23:00 -15°C° 0.1 mm 4 mps 764 mmHg 92%

    30 January, Thursday

    Time Temperature Precipitation Wind Pressure Humidity
    00:00 -15°C° 0.1 mm 4 mps 764 mmHg 94%
    01:00 -14°C° 0.3 mm 4 mps 764 mmHg 94%
    02:00 -12°C° 0.3 mm 4 mps 763 mmHg 94%
    03:00 -12°C° 0.3 mm 4 mps 763 mmHg 94%
    04:00 -12°C° 0.2 mm 5 mps 763 mmHg 94%
    05:00 -11°C° 0.2 mm 5 mps 762 mmHg 93%
    06:00 -10°C° 0.2 mm 5 mps 762 mmHg 93%
    07:00 -8°C° 0.1 mm 5 mps 762 mmHg 93%
    08:00 -7°C° 0.1 mm 5 mps 762 mmHg 93%
    09:00 -6°C° 0.1 mm 5 mps 762 mmHg 94%
    10:00 -5°C° 0 mm 6 mps 761 mmHg 93%
    11:00 -4°C° 0 mm 6 mps 761 mmHg 92%
    12:00 -4°C° 0 mm 7 mps 761 mmHg 91%
    13:00 -6°C° 0 mm 7 mps 761 mmHg 91%
    14:00 -5°C° 0 mm 6 mps 761 mmHg 91%
    15:00 -6°C° 0 mm 6 mps 761 mmHg 92%
    16:00 -8°C° 0 mm 6 mps 761 mmHg 92%
    17:00 -9°C° 0 mm 6 mps 761 mmHg 92%
    18:00 -11°C° 0 mm 5 mps 761 mmHg 93%
    19:00 -11°C° 0 mm 5 mps 761 mmHg 93%
    20:00 -12°C° 0 mm 5 mps 760 mmHg 93%
    21:00 -12°C° 0 mm 5 mps 760 mmHg 93%
    22:00 -11°C° 0 mm 4 mps 760 mmHg 93%
    23:00 -12°C° 0 mm 4 mps 760 mmHg 93%

    31 January, Friday

    Time Temperature Precipitation Wind Pressure Humidity
    00:00 -12°C° 0 mm 4 mps 760 mmHg 93%
    01:00 -12°C° 0 mm 4 mps 760 mmHg 93%
    02:00 -14°C° 0 mm 5 mps 760 mmHg 93%
    03:00 -14°C° 0 mm 5 mps 759 mmHg 93%
    04:00 -14°C° 0 mm 5 mps 759 mmHg 93%
    05:00 -14°C° 0 mm 5 mps 759 mmHg 93%
    06:00 -15°C° 0 mm 5 mps 759 mmHg 93%
    07:00 -14°C° 0 mm 5 mps 759 mmHg 93%
    08:00 -14°C° 0 mm 5 mps 759 mmHg 93%
    09:00 -14°C° 0 mm 5 mps 759 mmHg 93%
    10:00 -13°C° 0 mm 5 mps 758 mmHg 93%
    11:00 -13°C° 0 mm 5 mps 758 mmHg 93%
    12:00 -12°C° 0 mm 5 mps 758 mmHg 92%
    13:00 -12°C° 0.1 mm 5 mps 757 mmHg 93%
    14:00 -12°C° 0.1 mm 5 mps 757 mmHg 93%
    15:00 -12°C° 0.1 mm 5 mps 757 mmHg 93%
    16:00 -12°C° 0.2 mm 5 mps 756 mmHg 93%
    17:00 -12°C° 0.2 mm 5 mps 756 mmHg 94%
    18:00 -11°C° 0.2 mm 4 mps 756 mmHg 94%
    19:00 -11°C° 0.9 mm 5 mps 756 mmHg 94%
    20:00 -11°C° 0.9 mm 5 mps 756 mmHg 94%
    21:00 -11°C° 0.9 mm 5 mps 755 mmHg 94%
    22:00 -10°C° 0.7 mm 4 mps 755 mmHg 95%
    23:00 -10°C° 0.7 mm 4 mps 755 mmHg 95%
    Show more